Total_Precipitation_Accumulation
0.06 0.22 0.54 0.83 1.29 1.72 1.58 1.09 0.88 0.64 0.52 0.54 0.45 0.44 0.54 0.83 1.28 2.32 2.56 1.95 1.35 1.27 1.46 1.63 1.67 1.65 1.56 1.55 1.74 1.82 1.82 1.85 1.90 2.04 2.15 2.22 2.23 2.12 2.02 2.04 2.10 2.22 2.25 2.28 2.44 2.51 2.49 2.43 2.46
0.12 0.29 0.57 0.97 1.48 1.84 1.51 0.86 0.60 0.49 0.44 0.48 0.44 0.46 0.67 0.79 0.86 1.48 1.85 1.60 1.10 1.03 1.21 1.35 1.50 1.44 1.36 1.39 1.46 1.59 1.69 1.67 1.78 2.04 2.15 2.22 2.16 2.05 2.01 1.94 2.01 2.17 2.33 2.45 2.44 2.35 2.21 2.04 2.01
0.18 0.30 0.55 0.94 1.20 1.34 1.13 0.71 0.48 0.37 0.43 0.59 0.62 0.54 0.85 0.97 0.90 1.34 1.55 1.12 0.89 0.99 1.22 1.34 1.29 1.19 1.11 1.07 1.15 1.35 1.51 1.64 1.78 1.91 1.95 1.99 1.96 1.98 1.90 1.85 1.96 2.21 2.62 2.72 2.50 2.22 2.00 1.85 1.74
0.19 0.36 0.47 0.68 0.74 0.67 0.63 0.52 0.41 0.36 0.39 0.51 0.65 0.75 1.02 0.98 0.88 1.10 1.13 0.87 0.76 0.91 0.98 1.01 1.08 1.01 0.97 0.96 1.03 1.16 1.30 1.50 1.68 1.75 1.81 1.93 2.00 1.96 1.87 1.92 2.09 2.38 2.69 2.65 2.42 2.17 1.94 1.81 1.68
0.24 0.37 0.53 0.63 0.65 0.58 0.48 0.42 0.38 0.44 0.47 0.56 0.63 0.95 1.22 1.13 0.92 0.92 0.92 0.77 0.61 0.65 0.70 0.73 0.85 0.85 0.88 0.87 0.95 1.10 1.31 1.48 1.50 1.63 1.95 2.09 2.05 2.02 2.05 2.12 2.32 2.43 2.46 2.38 2.31 2.09 1.94 1.80 1.74
0.25 0.32 0.43 0.57 0.59 0.54 0.46 0.36 0.30 0.37 0.52 0.68 0.76 0.97 1.41 1.35 1.06 0.93 0.74 0.68 0.55 0.50 0.64 0.74 0.84 0.85 0.84 0.85 0.96 1.14 1.32 1.43 1.48 1.64 1.87 2.00 1.98 1.99 2.10 2.21 2.36 2.34 2.30 2.20 2.05 1.85 1.82 1.79 1.73
0.21 0.23 0.25 0.38 0.46 0.45 0.42 0.37 0.31 0.35 0.53 0.71 0.75 1.10 1.52 1.63 1.24 0.92 0.78 0.77 0.78 0.70 0.78 0.94 0.99 1.00 1.05 1.15 1.20 1.32 1.43 1.53 1.62 1.70 1.74 1.81 1.90 1.97 2.09 2.24 2.32 2.30 2.18 1.96 1.89 1.83 1.80 1.76 1.66
0.15 0.16 0.19 0.24 0.30 0.43 0.39 0.31 0.29 0.38 0.43 0.52 0.67 1.04 1.42 1.44 1.24 1.12 1.22 1.21 1.26 1.07 0.98 1.03 1.18 1.31 1.26 1.27 1.43 1.51 1.57 1.58 1.61 1.63 1.72 1.85 2.05 2.12 2.25 2.32 2.50 2.53 2.30 1.98 2.05 1.95 1.74 1.68 1.65
0.08 0.22 0.26 0.20 0.22 0.28 0.24 0.29 0.28 0.26 0.32 0.43 0.60 0.86 1.12 1.09 1.14 1.42 1.74 1.62 1.59 1.42 1.18 1.07 1.03 1.19 1.35 1.36 1.40 1.57 1.64 1.67 1.76 1.91 2.00 2.20 2.41 2.40 2.72 2.79 3.00 2.97 2.61 2.34 2.35 2.17 1.95 1.73 1.67
0.06 0.19 0.17 0.11 0.10 0.13 0.17 0.23 0.25 0.30 0.52 0.80 0.97 1.08 1.19 1.45 1.54 1.68 1.75 1.66 1.65 1.62 1.40 1.27 1.20 1.17 1.30 1.33 1.54 1.87 1.80 1.89 2.09 2.41 2.53 2.77 2.91 2.94 2.66 3.18 3.58 3.52 3.26 2.95 2.91 2.71 2.27 1.88 1.79
0.05 0.09 0.09 0.09 0.07 0.08 0.13 0.16 0.19 0.32 0.71 1.08 1.35 1.47 1.53 1.77 2.00 2.02 2.08 2.08 1.99 1.92 1.68 1.46 1.42 1.46 1.46 1.60 1.60 1.84 2.12 2.35 2.45 2.52 2.63 2.87 2.84 2.77 2.83 3.30 3.60 3.58 3.40 3.31 3.44 3.20 2.66 2.54 2.65
0.02 0.02 0.04 0.06 0.04 0.05 0.08 0.12 0.21 0.45 0.88 1.04 1.31 1.54 1.59 1.99 2.09 2.09 2.55 2.65 2.24 1.97 1.96 1.86 1.80 1.79 1.83 1.70 1.87 1.91 2.00 2.22 2.43 2.61 2.61 2.77 3.15 3.18 3.23 3.48 3.40 3.47 3.47 3.74 3.54 3.61 3.34 2.99 2.73
0.01 0.02 0.03 0.04 0.04 0.04 0.06 0.11 0.22 0.44 0.68 0.81 1.03 1.22 1.28 1.80 2.14 2.38 2.88 2.84 2.53 2.34 2.28 2.15 2.11 2.17 2.15 2.17 2.22 2.03 2.13 2.26 2.38 2.59 2.76 2.79 3.07 3.25 3.39 3.52 3.45 3.05 3.01 3.28 3.54 3.43 3.53 3.47 3.22
0.02 0.03 0.05 0.04 0.05 0.06 0.07 0.15 0.27 0.48 0.62 0.87 0.90 1.08 1.33 1.75 2.04 2.46 2.79 3.01 2.88 2.66 2.51 2.34 2.31 2.41 2.49 2.50 2.60 2.56 2.36 2.47 2.43 2.69 2.74 2.82 2.95 3.21 3.49 3.58 3.54 3.14 2.98 3.18 3.38 3.29 3.59 3.51 3.45
0.03 0.07 0.11 0.09 0.07 0.08 0.10 0.30 0.54 0.62 0.73 0.91 1.06 1.19 1.43 1.81 2.30 2.58 2.83 3.12 3.14 3.09 2.92 2.70 2.60 2.77 3.00 3.14 3.14 3.00 2.80 2.59 2.59 2.72 2.76 2.88 2.92 3.21 3.27 3.28 3.31 3.28 3.05 3.19 3.29 3.31 3.45 3.29 3.13
0.06 0.09 0.15 0.16 0.11 0.11 0.19 0.64 0.76 0.63 0.81 1.03 1.12 1.36 1.67 2.07 2.51 3.01 3.17 3.08 3.09 3.24 3.21 2.92 2.70 3.17 3.54 3.63 3.64 3.44 3.17 2.80 2.72 2.78 2.86 2.97 3.06 3.21 3.39 3.15 3.08 3.38 3.27 3.40 3.71 3.64 3.71 3.78 3.63
0.10 0.17 0.16 0.19 0.15 0.15 0.27 0.78 0.74 0.55 0.68 0.89 1.12 1.36 1.77 2.29 2.66 2.84 2.91 3.12 3.26 3.35 3.32 3.27 3.38 3.52 3.68 3.77 3.89 3.67 3.44 3.20 2.94 2.85 2.85 2.94 3.07 3.19 3.56 3.44 3.47 3.49 3.52 3.56 3.20 3.75 4.06 4.11 3.94
0.13 0.14 0.18 0.19 0.17 0.21 0.31 0.57 0.65 0.65 0.82 0.94 1.24 1.46 1.61 2.00 2.47 2.59 2.73 3.20 3.30 3.48 3.61 3.55 3.68 3.85 4.14 4.33 4.52 4.15 3.76 3.48 3.20 3.02 3.06 3.10 3.32 3.46 3.76 3.65 3.59 3.52 3.66 3.66 3.64 4.09 4.06 3.80 3.82
0.05 0.11 0.21 0.20 0.18 0.25 0.36 0.56 0.76 0.84 0.99 1.29 1.50 1.51 1.47 1.78 2.28 2.67 2.98 3.13 3.47 3.68 3.85 3.86 4.10 4.53 4.88 4.72 4.40 4.22 3.96 3.74 3.51 3.25 3.15 3.17 3.18 3.38 3.75 3.58 3.84 3.75 3.61 3.53 3.51 3.85 3.95 3.67 3.85
0.04 0.08 0.19 0.20 0.20 0.31 0.47 0.70 0.85 1.05 1.27 1.36 1.29 1.29 1.43 1.82 2.34 2.72 3.00 3.16 3.43 3.70 4.13 4.27 4.47 4.86 5.01 4.86 4.73 4.57 4.43 4.02 3.88 3.74 3.58 3.22 3.04 3.15 3.19 3.52 3.34 3.43 3.60 3.49 3.62 3.93 3.83 3.46 3.91
0.05 0.10 0.17 0.18 0.26 0.41 0.54 0.99 1.15 1.29 1.41 1.39 1.32 1.53 1.54 1.63 2.06 2.35 2.47 2.66 2.84 2.99 3.25 3.55 4.05 4.58 4.80 4.86 4.77 4.71 4.73 4.26 3.99 3.85 3.69 3.32 3.03 2.92 3.07 3.23 3.31 3.38 3.29 3.39 3.62 3.70 3.76 3.66 3.78
0.07 0.08 0.09 0.13 0.25 0.53 0.62 1.24 1.43 1.62 1.72 1.59 1.52 1.46 1.45 1.69 2.01 2.03 1.86 2.02 2.28 2.28 2.59 3.02 3.48 3.86 4.10 4.20 4.21 4.25 4.21 4.12 4.03 3.89 3.52 3.28 3.03 2.89 2.97 3.10 3.18 3.24 3.06 3.21 3.04 3.19 3.68 3.80 3.62
0.06 0.07 0.10 0.15 0.28 0.52 0.55 0.93 1.46 1.82 1.99 1.61 1.51 1.38 1.45 1.67 1.71 1.67 1.68 1.80 1.96 2.12 2.44 2.75 3.08 3.39 3.57 3.68 3.77 3.88 3.77 3.79 3.69 3.52 3.31 3.10 2.93 2.78 2.56 2.69 2.94 3.02 2.90 2.82 2.85 3.10 3.24 3.21 3.23
0.06 0.10 0.19 0.27 0.49 0.87 0.72 0.85 1.40 1.76 1.61 1.40 1.33 1.12 1.23 1.42 1.51 1.56 1.65 1.78 1.90 2.20 2.56 2.85 3.09 3.32 3.40 3.20 3.10 3.14 3.20 3.26 3.20 3.06 2.89 2.67 2.61 2.51 2.34 2.40 2.66 2.77 2.73 2.69 2.67 2.74 2.80 2.86 2.91
0.09 0.21 0.67 1.09 1.43 1.33 0.82 0.93 1.52 1.40 1.06 0.99 1.07 1.05 1.05 1.09 1.24 1.35 1.54 1.74 1.92 2.03 2.13 2.57 3.00 3.18 3.09 2.84 2.66 2.59 2.73 2.85 2.78 2.67 2.59 2.50 2.36 2.29 2.27 2.31 2.46 2.49 2.45 2.41 2.48 2.55 2.59 2.76 2.86
0.14 0.26 0.76 1.06 1.16 1.14 0.93 1.32 1.80 1.40 0.95 0.81 0.92 0.90 0.79 0.75 0.73 0.81 0.99 1.11 1.26 1.31 1.33 1.51 1.79 2.04 2.12 2.02 2.05 2.10 2.14 2.22 2.23 2.42 2.27 2.25 2.19 2.08 2.13 2.09 2.09 2.12 2.14 2.13 2.45 2.48 2.60 2.78 2.86
0.25 0.30 0.32 0.55 0.76 1.16 1.18 1.38 1.49 1.22 0.95 0.90 0.98 0.89 0.71 0.67 0.63 0.69 0.80 0.85 0.95 0.98 1.02 1.16 1.41 1.65 1.70 1.71 1.77 1.82 1.83 1.88 1.92 1.98 1.94 1.90 1.96 1.92 1.93 1.91 2.02 2.01 2.08 2.23 2.43 2.44 2.51 2.78 2.83
0.22 0.30 0.46 0.73 0.98 1.13 1.22 1.59 1.76 1.57 1.29 1.12 1.07 0.94 0.72 0.60 0.58 0.65 0.76 0.80 0.90 1.01 1.16 1.28 1.39 1.50 1.51 1.51 1.53 1.48 1.58 1.61 1.66 1.66 1.60 1.62 1.69 1.72 1.75 1.78 1.84 1.90 1.94 2.09 2.33 2.34 2.41 2.56 2.61
0.26 0.34 0.50 0.68 0.74 0.96 1.35 1.52 1.28 1.24 1.22 1.28 1.23 1.02 0.78 0.60 0.55 0.61 0.73 0.79 0.86 0.99 1.13 1.27 1.36 1.45 1.43 1.39 1.46 1.52 1.54 1.58 1.56 1.53 1.46 1.53 1.60 1.64 1.67 1.74 1.83 1.87 1.89 2.04 2.20 2.20 2.32 2.32 2.34
0.24 0.35 0.51 0.77 0.81 0.84 1.02 1.20 0.82 0.82 0.94 1.03 1.04 0.83 0.65 0.58 0.56 0.64 0.76 0.80 0.94 1.01 1.08 1.10 1.20 1.33 1.34 1.37 1.49 1.69 1.66 1.66 1.63 1.50 1.45 1.51 1.51 1.55 1.59 1.70 1.78 1.77 1.86 2.05 2.13 2.13 2.30 2.36 2.34